Wind_Speed
35 34 33 31 30 29 29 29 29 30 30 30 30 28 27 25 24 24 24 26 28 32 36 39 42 45 47 47 48 48 48 48 48 47 46 44 42 41 39 39 38 38 38 38 37 36 35 34 33 32 32 31 30 30 29 29 29 30 29 28 27 26 25 25 25 26 28 29 28 27 26 28 29 30 30 31 33 34 35 35 34 35 35 34 34
45 44 44 43 41 39 36 34 33 34 33 33 33 32 32 31 29 28 28 28 30 32 36 39 42 45 47 49 50 50 49 49 49 49 48 46 44 43 41 40 40 39 39 39 37 37 36 35 34 34 34 33 33 31 30 30 29 30 29 29 28 28 27 26 26 26 28 29 29 27 26 27 29 30 30 29 30 31 32 33 34 34 34 34 33
51 51 51 51 51 49 46 43 40 39 38 38 37 35 34 34 35 34 33 33 33 35 37 41 44 46 48 50 51 52 52 52 51 51 49 48 47 45 44 43 42 41 40 39 38 38 37 37 36 36 36 36 35 34 33 31 30 30 30 30 29 29 29 28 28 27 28 30 30 29 28 27 28 30 30 29 30 30 32 33 34 35 35 35 34
54 55 56 56 56 55 54 51 48 45 44 43 43 41 39 37 37 38 38 38 37 37 39 42 46 49 50 52 53 54 54 54 54 53 52 51 50 48 46 45 44 43 41 40 40 39 39 39 38 38 38 38 38 37 36 34 32 32 32 32 31 32 31 30 30 29 29 30 31 31 31 30 29 30 31 31 32 33 33 34 35 35 36 36 36
55 56 57 57 55 54 53 52 50 49 47 46 46 47 47 45 43 43 43 42 42 41 41 42 45 49 52 54 55 55 56 56 57 57 56 55 53 51 49 47 46 45 43 42 41 41 41 41 41 41 41 41 40 39 38 37 36 35 35 34 34 35 34 32 32 32 31 31 32 32 33 32 32 32 33 34 34 35 35 34 34 35 35 36 36
51 52 52 52 50 48 47 46 44 44 44 44 44 46 49 50 49 48 47 47 47 46 46 46 46 47 50 54 57 58 58 58 59 59 59 58 57 55 53 50 49 47 46 45 44 43 43 43 43 43 43 43 42 42 41 40 39 39 38 37 37 37 37 35 34 34 34 34 34 34 35 35 34 35 35 36 35 36 35 35 35 35 35 35 34
47 47 47 48 47 44 42 41 40 40 40 40 42 43 46 49 50 50 50 50 51 51 51 51 50 49 49 51 55 59 61 60 60 61 61 62 61 59 57 54 52 50 49 48 47 46 46 46 46 46 46 45 45 45 44 44 43 42 41 40 40 40 40 38 37 37 37 36 36 36 37 37 37 36 37 36 35 36 36 36 35 35 34 34 33
45 46 46 47 47 46 43 41 40 40 40 40 41 42 44 46 48 50 51 52 53 54 55 55 54 54 53 53 53 56 60 63 63 63 63 64 64 63 61 59 56 54 53 52 51 50 49 49 49 48 48 48 48 48 48 47 46 45 44 43 43 43 42 41 40 40 39 38 37 37 37 38 38 37 37 36 35 36 37 37 36 35 35 34 33
46 47 48 49 49 48 47 45 44 44 44 44 44 44 45 46 47 49 50 51 52 53 56 57 57 57 57 57 56 56 58 62 64 65 66 66 66 66 65 63 61 59 57 56 55 54 53 53 52 51 51 51 51 51 51 50 50 49 47 46 46 46 45 44 44 43 42 40 38 38 38 39 38 38 37 36 37 37 38 38 37 36 36 35 34
47 49 50 51 50 50 50 50 50 50 50 50 50 49 49 49 50 50 50 50 51 52 54 56 58 59 60 60 61 61 61 61 62 65 66 67 67 67 67 66 65 63 62 60 59 58 57 56 55 55 54 54 53 53 53 53 53 52 50 49 48 48 48 47 47 46 44 42 40 39 39 39 38 38 38 38 38 39 38 38 38 38 38 36 35
47 49 51 51 51 52 53 53 53 53 53 53 54 53 52 51 51 51 51 51 51 52 53 54 56 59 61 62 63 65 65 63 61 61 63 66 68 69 69 69 68 67 66 64 63 61 60 59 59 58 57 56 55 55 55 56 55 54 53 52 51 51 51 50 50 49 46 44 42 41 40 39 39 39 39 39 39 39 38 38 38 39 39 38 37
42 44 47 49 50 50 51 52 52 52 52 53 54 54 54 53 52 52 52 52 52 52 52 54 56 58 60 62 62 64 67 67 64 61 60 63 66 69 70 70 70 70 69 67 66 64 63 62 62 61 60 59 58 57 58 58 57 57 56 55 55 55 54 53 52 51 48 46 44 42 41 41 41 40 39 39 39 40 39 39 39 40 39 39 39
44 44 44 44 45 47 48 49 50 51 52 53 53 53 54 54 53 53 52 51 52 53 52 53 55 58 60 61 61 62 64 67 67 65 62 62 63 67 70 70 70 71 70 69 67 66 65 64 64 63 63 62 61 61 60 59 59 59 58 58 58 57 56 55 54 52 49 47 45 43 42 42 42 41 40 40 40 40 39 39 40 41 41 40 40
52 52 50 48 47 47 47 47 48 49 50 51 52 52 52 52 53 54 53 52 51 52 53 53 54 56 59 62 62 62 63 65 67 68 67 64 63 64 67 69 69 69 69 69 68 68 67 66 65 64 64 64 64 63 62 60 59 60 60 59 59 58 58 57 55 53 50 48 45 43 44 44 42 41 40 40 40 40 40 40 41 41 41 41 42
58 58 57 56 55 53 51 49 48 47 48 49 50 51 51 51 52 53 54 53 51 50 51 53 54 55 58 61 63 64 64 65 68 69 69 67 63 62 64 66 68 69 69 69 69 68 67 66 65 64 64 65 64 62 61 59 58 59 59 60 59 59 58 58 56 53 51 49 46 45 45 45 42 41 40 40 40 40 41 41 42 42 42 42 43
58 59 59 59 57 56 56 54 52 51 50 49 50 51 52 52 52 52 54 54 52 50 50 51 53 54 56 58 61 64 64 65 67 68 68 67 63 61 62 64 66 68 70 70 70 69 67 66 65 64 64 64 64 62 60 58 58 59 60 60 60 59 59 58 56 54 51 49 47 46 46 44 42 41 40 40 41 41 42 43 43 43 43 44 45
54 55 57 57 56 54 53 53 54 54 53 53 52 51 51 52 53 53 53 53 52 50 49 50 51 52 54 54 56 60 62 64 66 66 67 67 64 61 61 62 63 66 68 68 67 66 66 66 66 65 64 64 65 63 61 60 61 61 62 62 62 61 60 59 57 54 51 49 48 47 46 44 42 41 41 42 42 42 43 44 44 44 45 46 47
52 52 52 53 54 53 51 50 51 52 53 55 55 54 52 52 52 52 53 54 54 52 50 50 50 51 52 53 53 54 57 61 64 66 66 65 64 61 60 60 60 61 63 63 63 64 66 67 66 65 64 64 64 63 62 62 62 63 63 64 63 63 62 60 57 53 50 49 48 47 46 44 42 42 42 42 43 43 44 45 45 46 47 48 49
52 52 51 51 51 51 51 50 49 49 50 52 54 55 55 54 53 52 53 54 54 54 53 51 50 50 52 53 54 53 53 55 60 64 64 63 63 61 59 58 58 59 61 63 64 65 66 66 65 65 65 65 64 63 62 63 63 64 64 64 64 64 63 59 54 51 49 48 48 48 46 44 42 42 42 42 43 44 44 46 47 48 48 49 49
54 53 52 51 50 50 50 50 49 48 48 49 50 52 53 54 55 54 53 54 54 54 55 54 52 50 51 52 54 55 54 54 56 59 60 61 61 60 59 59 60 61 62 64 65 65 65 65 65 65 65 65 64 64 64 64 65 66 66 66 66 64 60 55 51 49 48 49 49 47 46 44 43 42 42 42 43 44 45 46 48 49 49 49 50
56 55 54 53 52 52 51 51 51 50 49 49 50 50 50 51 53 54 54 54 54 54 54 54 53 51 50 51 52 54 55 55 55 55 56 57 57 58 60 61 61 62 64 64 65 65 66 65 64 64 64 64 63 63 64 65 66 67 67 66 65 61 57 54 51 49 49 49 48 47 46 45 43 42 42 43 43 44 45 47 48 49 50 50 49
60 59 58 57 57 56 55 54 54 53 52 51 51 50 50 49 51 52 53 53 54 54 54 54 54 52 51 50 51 51 53 53 53 52 52 54 55 56 58 59 60 62 64 64 65 66 66 65 63 62 62 62 61 61 63 65 66 67 66 65 62 60 58 56 53 51 50 49 47 47 46 45 43 43 43 43 43 44 45 47 48 49 49 49 49
66 65 64 63 62 61 60 59 58 58 57 56 55 53 51 50 50 51 51 52 53 55 55 55 54 54 52 51 50 51 50 50 50 50 51 54 55 56 57 57 58 61 63 64 64 65 64 63 61 60 60 59 59 61 64 66 65 64 63 62 60 60 60 58 55 52 50 48 48 47 46 44 44 43 42 42 42 43 44 46 48 48 48 48 47
70 69 68 68 67 65 65 64 62 61 60 60 60 57 53 51 51 51 50 51 52 53 55 56 55 55 54 51 50 50 49 48 48 48 51 54 55 58 60 61 62 63 64 64 64 64 63 62 60 59 59 59 60 62 63 64 63 61 60 59 59 61 62 58 54 51 49 48 48 47 45 44 44 43 42 41 41 42 43 45 46 46 46 46 45
72 72 72 72 71 70 70 68 67 65 64 63 63 62 58 55 53 52 51 51 51 52 53 54 54 54 53 52 50 49 48 47 46 46 48 51 54 56 60 63 64 64 64 64 64 63 61 60 59 59 58 58 59 60 61 61 60 58 57 57 59 61 61 57 52 49 48 47 46 45 45 45 45 43 41 40 40 41 42 43 44 43 43 42 41
75 75 75 75 75 74 74 73 71 70 68 67 66 65 64 60 57 54 53 52 52 52 51 52 52 52 52 51 50 49 48 46 45 44 45 47 51 54 58 62 63 62 61 62 62 62 60 58 57 57 57 58 59 58 58 58 58 57 56 56 58 60 58 54 49 47 47 47 46 46 46 45 44 42 40 39 39 40 41 42 41 40 39 39 38
78 78 77 77 77 77 77 77 76 75 73 71 70 69 68 66 63 59 55 53 53 53 52 51 51 51 50 49 49 49 49 47 44 43 42 42 45 49 55 60 61 61 61 61 60 60 58 55 54 53 55 57 58 57 56 56 57 57 56 56 57 57 54 49 46 45 47 48 47 46 45 44 42 40 39 38 38 39 39 38 37 37 37 37 38
81 81 80 80 80 80 80 81 81 80 78 76 74 72 71 70 68 65 60 56 55 54 53 52 51 50 50 48 48 49 50 48 45 42 41 40 40 42 48 55 59 59 59 59 58 56 53 50 50 51 53 56 57 57 57 57 58 58 57 56 56 54 50 47 46 48 49 48 46 45 44 42 41 40 38 37 36 36 36 35 35 35 36 37 38
85 85 84 84 84 83 83 83 82 82 81 79 76 74 72 70 70 68 64 60 58 56 55 54 52 50 50 50 48 48 49 49 45 42 41 41 39 38 41 47 54 57 55 53 51 50 48 47 48 49 51 54 56 57 57 58 58 57 57 57 55 50 46 46 48 49 48 46 45 44 42 41 39 38 36 35 34 34 34 34 35 36 37 38 38
88 87 87 86 86 85 85 84 83 82 82 80 78 75 71 69 68 67 65 62 60 58 56 54 52 50 51 51 49 47 48 47 45 44 44 42 39 37 37 39 45 50 51 49 45 44 44 45 46 47 49 52 54 54 55 56 57 57 57 56 52 47 45 46 47 47 46 44 43 41 40 39 37 36 34 34 33 33 33 34 35 36 37 38 38
90 89 88 88 87 86 86 85 84 82 81 79 78 77 73 69 67 65 64 61 60 58 57 54 52 51 51 51 50 48 47 47 46 45 44 41 39 38 38 38 39 40 41 40 39 39 40 41 42 44 46 48 50 51 52 52 53 54 54 53 50 47 46 46 46 44 43 41 40 39 39 37 36 34 34 33 33 33 34 35 36 37 37 38 39
90 89 88 87 87 86 85 84 83 82 80 79 78 77 76 73 68 64 61 59 58 57 56 55 53 51 50 50 51 49 48 47 46 45 43 41 39 37 38 39 39 38 36 34 33 33 34 35 38 40 42 45 46 47 46 46 48 50 51 51 50 49 47 45 43 42 40 39 39 39 38 36 35 34 34 33 34 34 35 35 36 36 37 38 39
85 84 83 82 81 80 80 79 78 77 77 76 76 75 75 74 70 65 60 57 56 55 55 54 53 51 49 49 50 50 48 46 45 44 43 41 39 37 37 38 40 40 39 36 34 31 29 30 32 35 37 39 40 40 39 39 41 45 47 49 49 47 46 44 42 41 39 38 38 38 37 36 35 35 34 34 35 35 35 35 35 36 37 38 39
77 76 75 74 73 73 72 71 70 69 68 68 69 68 68 68 67 65 60 55 53 53 53 53 52 50 49 48 48 49 48 46 44 43 42 40 39 37 36 37 39 41 40 40 39 37 34 33 31 31 31 32 33 34 34 35 37 40 44 46 47 47 47 45 43 40 38 37 38 38 37 36 35 35 35 35 35 34 34 34 35 36 38 38 39
66 65 64 64 65 65 64 63 62 61 60 60 60 60 59 59 60 60 58 54 51 50 50 51 51 49 48 47 47 46 47 45 43 42 41 40 38 37 36 37 40 43 43 42 42 41 40 38 35 31 29 29 29 30 32 33 34 37 40 43 45 46 45 43 40 37 37 37 38 38 37 36 35 35 35 34 34 33 33 34 35 37 38 38 38
54 54 54 54 54 54 54 54 54 54 54 54 53 53 53 53 52 53 52 51 49 48 47 48 48 47 46 46 45 44 44 44 43 41 40 39 38 39 39 38 40 43 44 43 42 42 41 39 35 31 27 27 28 30 31 32 34 37 39 42 43 42 41 39 37 37 37 38 38 37 36 35 35 35 34 33 32 32 33 34 36 37 38 38 38
45 45 45 45 45 45 46 46 47 48 48 48 48 48 48 47 46 45 46 46 46 46 45 45 46 45 44 43 43 42 42 43 42 40 39 39 39 39 39 39 40 41 43 43 42 41 38 34 31 28 26 26 27 29 31 33 35 37 39 40 40 39 38 37 37 37 37 37 36 35 35 35 35 34 33 31 31 31 33 35 36 37 37 38 38
39 40 40 40 40 40 40 41 42 43 43 42 42 41 41 40 39 39 40 41 42 43 43 42 42 42 41 40 40 40 40 41 42 41 39 39 40 40 39 38 39 39 41 42 41 37 33 30 28 26 25 26 28 30 32 33 35 37 38 38 38 37 36 36 36 36 36 36 35 35 35 34 33 32 30 30 30 32 34 35 36 37 37 37 38
36 35 34 35 35 36 36 36 36 36 35 34 33 32 32 32 32 33 35 37 38 39 39 38 38 38 37 38 38 39 39 40 41 40 38 38 39 39 38 37 37 38 39 40 37 33 30 28 27 26 26 28 30 32 33 34 35 36 36 36 36 35 34 34 35 35 35 35 34 34 33 32 31 29 29 30 31 33 34 35 36 36 37 37 38
33 31 29 29 29 30 30 30 30 29 29 27 26 25 25 26 27 29 31 33 34 34 34 34 34 34 34 35 35 35 36 37 38 37 36 36 37 37 37 36 37 38 38 37 34 30 28 27 27 28 29 30 31 33 34 34 34 35 34 34 34 33 33 34 35 35 34 34 33 32 31 30 29 28 29 30 32 32 33 34 35 36 36 37 38
30 28 26 25 25 25 25 24 25 25 24 23 21 20 19 19 20 22 24 26 27 28 29 30 30 30 30 30 29 30 31 33 33 34 34 33 33 33 35 36 36 36 36 35 32 29 26 25 26 28 30 31 32 33 33 33 33 33 33 33 33 33 33 34 34 33 32 31 30 29 28 27 27 28 29 30 31 32 33 34 35 35 36 37 38
27 25 23 22 22 22 21 21 21 21 20 19 17 16 15 14 15 16 18 19 21 23 24 25 26 25 25 25 24 25 27 29 30 31 31 31 31 32 33 33 33 33 34 32 29 25 23 24 25 27 28 30 30 31 31 31 31 31 32 32 32 32 32 33 32 31 29 28 27 27 27 26 27 28 29 30 31 32 33 34 35 35 36 37 38
24 22 20 19 19 19 19 18 18 17 16 15 14 12 11 10 10 11 12 14 15 17 19 20 21 21 21 20 20 22 24 26 28 29 30 31 31 31 31 30 30 30 29 26 23 22 22 24 25 26 27 27 27 28 28 29 29 30 31 31 32 32 32 31 30 28 27 26 25 25 26 26 27 28 29 30 31 32 33 34 35 36 37 38 39
21 20 18 17 17 17 17 17 16 15 14 12 10 9 8 7 6 6 7 8 10 12 14 15 16 17 17 17 18 21 23 24 26 27 29 29 30 29 29 27 26 25 23 23 23 24 25 25 26 27 28 29 30 30 30 30 30 30 30 30 31 30 30 28 26 25 24 24 25 25 26 26 27 28 29 30 31 32 33 34 35 36 37 38 39
18 17 16 16 15 15 15 14 13 12 11 9 8 7 6 5 4 4 4 6 8 10 12 14 15 15 15 16 18 20 21 23 24 26 27 27 26 26 25 24 22 22 23 24 25 26 27 28 29 30 31 32 32 31 30 29 29 28 29 29 29 28 27 25 24 24 24 24 24 25 25 26 27 28 29 30 31 32 33 35 36 37 38 39 40
17 15 14 14 14 13 12 10 9 8 8 7 6 5 4 4 4 5 6 8 10 11 13 13 13 13 14 15 17 18 19 20 21 22 22 22 22 23 23 23 23 24 25 25 26 27 29 30 31 31 31 31 29 28 27 26 27 27 28 27 27 26 25 24 24 23 23 24 24 24 25 26 27 28 29 30 31 33 34 35 37 37 38 39 41
16 14 13 12 12 12 11 9 8 6 5 4 3 3 3 4 5 7 8 10 11 11 11 11 12 12 14 15 16 16 17 18 19 19 20 21 22 23 25 26 26 26 26 26 26 28 30 31 32 32 30 28 26 25 25 26 26 26 26 25 25 24 24 23 23 23 23 23 24 25 26 26 27 28 29 30 32 33 34 36 37 38 39 40 42
18 15 13 12 11 10 10 9 8 7 5 4 3 3 3 5 6 7 8 9 10 11 11 11 12 13 14 16 16 16 17 18 20 20 21 23 25 27 28 27 26 26 27 27 28 30 31 31 30 29 27 25 25 25 25 25 25 25 24 24 24 23 23 23 22 22 23 23 24 25 25 26 27 28 29 30 32 33 35 37 38 39 40 41 43
21 18 16 15 13 11 9 8 7 7 6 5 4 3 3 4 4 5 6 7 8 9 10 11 11 12 14 16 17 18 20 21 22 23 24 26 28 29 28 27 26 25 26 27 27 27 27 27 26 25 24 23 24 24 24 24 24 24 23 23 23 22 22 22 22 22 23 24 24 24 25 26 27 28 29 30 32 34 36 37 39 40 41 43 45
28 24 20 18 16 13 11 9 8 6 5 4 3 2 2 3 3 3 4 5 6 7 8 8 9 11 14 16 19 22 23 24 25 26 26 27 27 27 25 25 24 24 23 23 23 23 24 23 23 23 23 23 24 24 23 23 23 22 22 21 21 21 21 21 22 22 23 23 24 24 25 26 27 28 30 31 33 35 37 39 40 42 43 45 47
37 33 29 25 21 18 15 13 11 9 7 5 3 1 1 2 3 4 5 6 7 7 8 9 10 13 16 19 22 24 25 25 26 26 26 27 26 25 24 23 22 21 21 21 21 21 21 21 22 22 23 23 23 23 22 21 21 20 20 20 20 20 20 21 21 22 22 23 24 25 26 27 28 29 30 32 34 36 38 40 42 43 45 47 48
Wind_Direction
273 275 276 276 277 279 279 277 273 270 267 265 262 262 264 268 271 271 267 262 258 253 246 239 234 230 230 230 231 232 234 236 238 239 242 245 248 250 251 253 254 255 255 255 255 255 255 254 253 252 252 254 256 259 263 266 269 270 269 267 264 261 258 253 250 248 244 243 241 239 240 242 243 246 249 252 255 257 259 262 264 266 268 271 272
273 274 276 276 277 277 277 276 273 272 269 266 264 263 262 261 262 263 263 262 259 254 248 243 238 235 233 233 234 235 237 238 239 240 242 245 247 250 253 255 255 256 256 257 257 256 256 256 254 253 253 253 253 254 258 261 266 269 269 267 265 262 260 255 251 248 246 245 244 243 242 243 245 246 248 251 255 258 262 264 266 267 268 268 269
277 277 277 278 278 278 277 276 273 271 270 268 266 265 262 260 257 256 255 256 255 252 249 244 241 238 236 236 236 237 239 240 240 241 242 245 248 250 253 255 256 257 257 257 257 256 256 256 255 254 254 254 252 252 254 258 263 267 268 267 265 263 261 257 253 251 249 248 248 247 246 246 248 249 250 253 256 258 261 262 264 265 265 266 266
281 281 280 280 279 280 280 279 278 275 272 269 267 265 263 260 258 256 254 254 253 252 250 247 243 240 238 237 237 238 240 241 242 242 242 244 246 248 250 253 255 257 258 258 257 256 256 256 255 255 254 254 253 252 254 257 261 265 266 265 264 263 262 260 257 255 253 251 251 250 250 249 251 252 254 255 257 257 258 259 260 261 262 263 264
284 283 283 282 282 281 281 282 281 279 277 273 269 266 264 263 261 258 256 255 254 254 254 253 250 247 243 241 240 240 241 241 242 242 242 242 243 245 247 250 253 255 257 257 257 257 256 256 255 254 255 255 255 256 257 257 259 261 263 263 263 262 262 261 260 259 257 255 253 252 252 252 253 254 255 257 258 259 259 260 261 260 261 262 262
285 284 284 284 285 283 282 281 279 277 275 273 270 266 263 263 263 261 258 255 253 253 254 255 255 254 250 247 245 243 242 242 242 242 242 242 243 244 245 247 250 252 254 255 256 256 256 255 254 254 256 258 258 258 258 258 257 259 260 261 261 262 262 262 261 261 260 258 257 254 253 253 253 255 256 257 259 260 261 263 264 263 263 264 265
285 285 285 285 286 285 282 280 277 274 271 268 266 263 260 259 258 258 258 256 253 252 253 255 256 257 255 253 251 248 246 245 244 243 242 242 242 243 244 245 247 249 252 254 255 255 255 255 254 255 257 259 259 258 258 258 258 259 260 260 261 263 263 263 263 262 261 260 260 258 257 256 256 257 258 260 263 265 267 269 270 270 270 272 273
286 286 286 286 286 286 284 280 277 275 272 269 266 263 260 258 257 257 257 256 254 252 252 253 254 255 255 254 254 253 251 248 246 245 243 243 242 243 244 245 246 247 250 252 253 254 254 254 254 254 255 256 257 256 257 257 258 258 260 261 263 264 265 265 264 263 263 263 262 262 261 261 261 262 263 265 269 272 273 275 277 278 279 280 283
284 285 285 285 284 284 284 283 281 279 276 274 272 269 266 264 261 260 259 258 257 255 253 251 250 250 251 251 252 253 253 251 249 247 245 244 243 243 244 245 245 246 247 249 251 253 253 253 253 253 253 254 255 256 256 256 257 259 260 262 264 265 266 267 266 265 265 265 265 265 265 265 266 267 269 271 274 276 278 280 283 285 285 288 292
281 282 283 283 283 283 283 284 285 285 284 282 279 276 274 271 269 266 264 261 260 258 256 253 250 248 248 248 249 250 251 252 250 247 246 244 243 243 243 244 245 246 246 248 249 251 252 253 253 252 252 252 254 256 257 258 258 259 260 261 263 265 267 267 267 266 266 266 267 267 267 268 269 271 272 274 275 278 281 285 288 289 289 291 295
280 280 281 282 284 284 284 285 286 287 287 287 286 284 281 278 276 273 270 266 262 259 257 256 254 251 249 249 249 249 249 250 250 249 247 245 243 242 242 242 243 245 246 247 248 250 252 253 253 253 253 253 255 256 258 258 259 259 260 260 262 265 266 266 266 266 266 266 267 268 269 269 270 271 272 274 276 279 283 287 289 290 290 291 292
286 284 282 283 284 285 285 286 286 287 288 288 289 289 288 286 283 279 276 272 267 262 258 256 256 255 253 251 251 250 248 248 250 250 249 247 244 242 241 241 242 243 245 246 247 249 251 253 254 254 255 255 256 256 257 258 259 259 259 259 261 263 263 264 265 265 266 266 266 268 269 269 269 271 273 275 277 280 284 287 288 288 288 288 289
289 288 286 285 286 287 287 286 285 286 287 287 288 288 289 288 287 284 281 277 272 266 261 257 255 255 255 254 253 252 250 249 250 251 251 250 248 244 241 240 241 242 243 245 247 249 251 253 255 256 256 256 256 256 256 256 257 257 257 259 261 261 261 262 263 264 265 264 265 267 268 268 269 271 273 275 277 280 284 287 287 286 285 286 286
294 291 290 288 288 288 288 288 287 286 285 285 284 285 285 285 285 284 283 281 276 270 265 261 257 256 256 256 255 254 252 250 249 250 251 251 250 247 243 241 240 241 243 245 246 248 250 252 254 256 257 256 255 255 255 255 256 256 256 258 261 260 259 259 261 262 263 263 264 265 266 266 268 270 272 274 277 280 283 285 284 284 284 285 285
300 298 295 294 292 290 288 287 286 286 285 284 282 281 280 280 280 281 281 281 279 274 268 263 259 256 256 256 256 255 253 250 248 247 248 249 249 248 244 241 240 241 242 244 245 247 249 250 252 254 255 255 254 253 253 253 253 254 255 257 258 257 256 256 257 259 261 261 262 262 263 265 266 269 271 274 277 279 281 283 283 283 284 285 285
303 302 300 298 297 295 292 289 286 284 283 283 283 281 279 278 277 277 278 279 279 276 271 266 261 256 254 254 255 256 254 252 249 247 247 246 246 245 243 240 239 240 240 242 243 245 247 249 252 254 255 254 252 249 248 249 249 250 252 254 255 253 252 253 254 256 258 258 259 260 262 263 265 268 270 273 275 278 281 282 283 284 285 286 286
304 303 301 300 299 298 296 292 289 285 281 280 280 280 279 278 277 275 276 277 279 278 275 270 265 260 256 254 254 254 254 253 251 249 247 244 243 241 239 237 238 238 239 239 240 242 246 250 252 253 254 253 250 247 247 247 247 249 252 254 252 250 249 250 252 254 255 256 257 259 260 262 264 267 269 271 274 278 281 283 284 285 286 286 286
304 302 301 300 299 298 297 294 291 287 284 281 279 278 277 278 277 276 276 276 278 279 278 275 271 266 260 257 255 254 253 252 251 249 245 242 239 236 234 233 234 235 236 237 239 243 246 249 251 252 253 252 249 246 246 247 249 252 254 254 251 249 249 249 250 252 253 254 256 257 259 260 263 265 268 271 274 277 280 283 284 285 286 286 287
302 301 300 299 298 298 298 297 294 290 287 284 281 278 276 275 275 276 276 276 276 277 278 278 275 272 267 262 259 257 255 253 251 248 243 239 236 233 231 231 231 233 234 237 240 244 246 248 250 251 250 248 246 245 247 249 251 253 253 252 250 248 247 247 248 249 251 253 254 256 258 259 261 264 267 270 274 277 279 282 283 284 285 286 287
300 299 299 298 297 297 297 296 296 294 290 287 283 280 278 275 273 273 273 274 274 274 276 278 278 276 273 268 263 260 259 258 256 252 244 238 234 231 230 231 231 233 236 239 241 243 245 247 249 248 246 245 245 246 249 252 253 253 252 251 249 246 244 244 245 246 248 251 252 254 256 258 260 263 266 270 273 276 279 281 282 284 285 286 288
299 298 298 297 297 296 296 296 295 294 292 289 286 282 280 277 275 272 271 271 271 271 273 275 277 278 277 275 270 265 263 261 260 257 249 242 238 234 232 232 233 235 237 239 241 243 244 246 247 246 245 246 247 248 251 254 254 252 251 250 247 244 242 242 242 243 246 249 251 253 255 257 260 263 266 270 273 276 279 280 281 283 284 286 288
298 298 297 297 296 296 295 295 295 295 293 291 288 284 281 279 276 274 272 270 269 268 269 272 274 276 278 279 276 271 268 265 263 260 253 247 244 242 239 237 236 237 239 240 241 242 243 244 244 245 245 246 248 250 253 253 252 250 249 248 245 242 242 240 238 239 242 246 249 252 254 256 260 263 266 270 273 276 278 279 280 282 283 285 287
297 297 297 297 296 295 294 294 294 294 293 292 290 286 283 280 278 276 274 272 269 266 265 267 269 271 274 277 277 275 271 268 265 261 254 249 245 244 243 242 242 242 242 242 242 241 242 243 243 243 245 246 248 249 251 251 250 249 247 246 244 243 242 239 236 236 240 244 247 250 252 256 259 262 266 270 272 274 276 277 278 280 282 284 286
294 295 296 296 295 295 294 293 292 292 292 291 290 288 285 282 280 278 276 274 271 267 264 264 265 266 268 270 273 274 273 271 268 263 257 252 247 244 243 244 244 245 245 244 243 242 241 241 241 242 244 246 247 248 248 249 249 248 246 243 241 242 242 239 235 236 239 242 245 248 252 255 258 261 265 268 271 272 274 275 277 278 280 283 285
292 293 293 293 294 293 292 292 291 290 290 289 289 287 285 283 280 279 278 276 272 269 266 263 263 264 265 266 268 270 272 272 271 268 262 257 252 247 244 244 243 243 242 242 242 241 240 240 240 242 243 244 245 245 245 246 246 244 241 239 239 241 241 237 234 235 238 241 244 247 250 253 257 261 264 267 269 271 273 274 275 277 279 282 284
290 290 290 291 291 291 291 290 290 289 288 288 287 286 285 283 281 278 277 276 274 271 267 265 263 261 261 263 264 265 267 268 270 271 268 263 256 250 246 244 242 240 239 239 238 238 238 239 240 241 242 242 243 242 242 243 243 242 238 236 238 240 238 235 233 235 238 241 243 245 248 252 256 260 264 267 269 270 271 273 274 277 279 282 284
289 289 289 289 289 289 289 289 289 288 287 287 286 285 284 283 282 279 276 276 275 272 268 266 263 260 259 259 259 261 262 263 265 267 269 268 263 255 248 245 242 239 237 238 238 238 239 239 239 240 241 242 243 242 241 240 241 241 239 237 237 238 235 232 232 234 236 239 241 244 247 251 255 260 264 265 266 268 269 272 274 276 279 280 282
289 289 289 288 288 288 287 287 287 287 286 285 284 283 282 281 281 279 276 275 274 273 270 267 264 261 258 256 255 256 258 260 261 261 262 265 267 262 254 247 244 240 238 238 239 239 239 240 239 239 239 241 241 241 240 239 239 240 241 240 237 234 231 229 230 232 235 238 241 244 248 252 256 261 263 264 264 266 269 271 273 275 276 277 279
288 287 287 287 286 286 285 285 284 284 284 283 282 281 280 279 279 277 275 273 272 272 269 266 264 262 259 255 253 252 254 256 256 255 254 256 261 265 261 254 248 244 240 239 240 241 241 241 241 240 241 242 242 241 241 241 240 240 241 240 236 230 227 228 230 232 235 239 242 245 248 253 258 262 263 263 264 266 268 269 271 272 273 276 279
286 286 285 285 284 283 283 282 282 281 281 280 280 279 277 276 276 276 274 272 270 269 268 265 263 262 261 257 252 250 250 250 250 250 251 252 253 257 261 260 256 250 245 242 240 239 239 240 240 241 241 242 243 243 243 242 241 240 240 239 235 229 225 227 230 233 236 238 242 246 250 255 259 262 262 262 263 264 266 267 269 271 273 276 280
285 285 284 283 283 282 281 280 280 279 278 278 277 277 275 274 272 272 271 270 267 266 266 265 261 260 260 258 254 250 247 245 245 246 248 249 248 249 251 255 258 258 255 251 245 241 239 239 239 239 240 241 242 243 243 242 242 241 239 237 233 229 227 229 231 234 236 240 244 248 252 256 260 261 261 260 261 262 263 265 267 270 274 277 280
285 284 284 283 282 281 280 279 279 278 277 276 275 275 275 273 271 269 267 266 265 263 263 262 260 257 257 257 256 252 247 244 243 242 243 245 247 246 246 248 252 255 257 256 252 247 243 240 239 239 239 239 240 241 242 243 243 241 237 233 231 229 229 230 232 235 238 242 246 249 253 257 260 261 260 259 259 260 262 264 268 272 275 279 281
285 284 284 283 282 281 280 280 279 278 277 276 275 274 273 272 271 268 264 262 261 259 258 258 257 255 254 254 254 253 249 245 242 241 241 243 244 245 244 245 246 248 250 252 252 249 245 241 238 237 238 239 240 241 242 243 243 242 238 235 234 233 232 232 233 235 239 243 247 250 253 257 260 260 258 257 258 259 261 265 269 273 277 279 281
285 284 284 283 282 282 281 280 279 278 277 276 275 273 272 270 269 267 263 259 256 254 253 254 254 253 252 251 251 251 250 247 243 241 241 241 242 244 244 243 242 243 244 246 248 248 245 242 239 236 236 238 240 240 240 240 240 240 240 238 235 234 233 232 233 234 238 242 246 249 253 257 258 257 256 255 257 259 262 267 271 275 277 280 281
286 285 284 283 283 282 281 280 279 278 277 276 275 274 272 269 267 265 262 258 254 251 249 249 250 250 249 248 248 248 249 248 244 241 240 240 241 244 243 241 240 240 240 242 245 247 247 245 243 241 239 238 238 238 238 237 236 236 237 236 234 233 233 232 232 234 238 242 245 248 252 255 256 254 254 254 256 260 265 269 273 276 278 280 282
289 288 286 285 284 283 281 280 279 277 276 275 275 274 273 270 266 262 259 257 254 250 246 245 246 246 246 245 245 245 247 248 244 241 241 241 242 243 244 242 241 241 242 242 244 246 247 247 247 247 246 244 242 240 238 236 234 232 232 232 232 232 231 231 232 235 239 242 244 248 252 254 253 252 253 255 258 263 268 271 274 277 279 282 284
296 294 292 290 288 285 283 281 280 279 277 276 275 274 273 270 266 261 257 254 251 249 246 245 245 244 243 242 243 243 246 248 246 243 242 243 242 243 243 243 242 243 243 242 242 243 245 246 248 248 247 246 245 242 238 234 231 229 229 228 228 228 228 230 233 237 240 242 245 249 252 252 250 250 252 255 260 265 269 272 275 278 281 284 286
303 301 299 297 294 290 287 285 283 281 280 279 278 276 274 270 265 260 255 252 250 249 247 245 244 243 241 240 242 243 245 247 247 244 242 243 243 243 242 243 244 245 244 244 244 244 244 245 244 243 241 241 242 239 235 233 230 228 227 226 225 225 227 231 235 239 240 242 245 248 249 249 248 250 254 257 262 266 270 273 276 279 282 285 288
310 308 305 303 299 295 292 290 288 286 285 283 281 278 274 270 265 259 254 250 248 247 246 244 242 241 240 240 242 245 247 248 248 246 244 244 245 245 244 245 246 247 247 247 248 248 248 247 244 239 235 234 234 233 231 229 227 225 224 223 224 226 230 234 238 239 240 242 244 246 246 247 248 252 256 260 264 268 271 274 278 281 284 287 290
318 316 313 309 304 301 298 296 294 293 291 287 284 279 274 270 265 260 255 251 248 246 245 243 241 240 241 242 244 246 248 249 249 248 247 245 244 244 244 245 245 246 248 250 251 251 250 247 241 234 230 229 229 228 226 223 221 220 219 220 223 227 231 235 237 238 239 240 242 243 244 247 250 254 258 263 267 270 274 277 280 283 286 289 292
322 321 319 316 312 309 307 303 299 296 293 290 288 284 278 272 266 260 255 251 247 244 242 242 241 241 243 244 246 247 248 248 248 247 245 242 239 240 242 243 244 246 247 248 250 249 247 241 234 229 227 228 227 225 222 219 217 216 216 219 224 228 232 235 236 236 237 238 239 242 244 248 252 257 262 266 269 273 276 279 282 286 289 291 294
323 322 323 322 319 316 313 308 303 300 297 296 294 290 283 275 265 256 250 247 244 243 242 242 242 242 244 245 247 246 245 244 242 240 237 234 234 237 241 242 243 244 244 244 243 240 235 230 227 225 226 226 224 220 217 214 213 214 217 222 227 230 232 233 232 233 234 236 238 242 246 251 256 261 265 269 272 276 279 282 285 288 291 293 296
326 324 324 324 323 322 319 315 311 309 307 305 303 300 294 285 270 257 249 245 244 244 245 244 243 243 243 243 242 239 238 236 235 233 231 230 231 236 239 240 241 241 238 233 225 219 217 217 216 217 218 216 212 208 207 208 212 217 221 225 228 229 229 229 229 230 233 236 240 244 249 254 259 263 266 271 274 278 282 284 287 290 292 295 297
331 328 326 324 322 321 320 319 320 320 319 319 318 316 313 306 293 277 263 254 251 249 248 246 244 242 239 234 229 228 228 227 226 227 226 226 228 232 234 234 233 230 222 211 203 202 205 206 206 207 205 200 196 197 201 207 214 219 223 225 226 226 226 227 228 230 233 237 242 247 252 257 261 265 269 273 277 280 283 286 289 291 294 296 298
339 339 337 332 328 323 319 319 323 327 329 330 328 323 318 313 304 288 270 257 250 243 239 237 234 230 225 222 221 222 223 221 220 221 222 223 225 227 226 222 215 207 199 193 192 194 197 199 200 199 197 194 194 197 202 208 213 217 219 220 222 222 224 225 227 231 236 241 245 250 255 259 264 268 272 276 280 283 285 288 291 293 295 297 299
346 350 351 348 343 337 330 329 334 338 337 334 327 317 308 295 275 253 237 232 228 226 226 225 221 218 219 220 221 222 220 217 217 218 219 219 219 216 210 201 193 188 185 185 187 190 192 194 195 194 192 193 195 200 204 208 211 213 215 218 219 221 223 226 229 234 238 243 248 253 257 262 266 271 275 279 282 285 288 290 292 294 297 299 301
350 354 358 359 356 352 348 346 348 348 342 330 314 297 279 262 247 233 225 221 219 219 220 217 213 214 216 217 216 215 212 207 205 206 206 204 200 194 188 183 180 179 178 181 186 190 192 192 191 191 191 192 195 200 204 207 209 211 213 216 219 221 224 228 232 237 241 246 251 255 260 264 269 274 277 281 284 287 290 292 293 296 298 300 302
-0 360 2 5 6 4 0 357 354 351 345 331 307 281 263 253 243 234 228 223 220 219 218 215 215 215 214 211 208 203 195 191 187 185 184 184 182 179 176 174 175 177 179 183 188 191 191 190 189 190 190 192 195 199 203 205 207 210 213 216 219 223 227 231 236 240 245 249 253 258 263 268 272 276 280 284 287 289 291 293 295 298 300 301 302
15 11 9 8 8 7 7 5 1 356 350 340 322 295 274 264 257 248 236 227 224 223 222 220 218 213 207 201 193 183 176 173 170 169 171 174 175 174 172 171 173 176 180 184 186 187 187 187 187 188 190 193 196 198 201 203 206 210 214 218 223 227 231 236 240 244 248 253 257 262 266 271 275 279 283 287 289 291 293 295 297 299 301 302 304
31 27 22 18 15 13 13 12 10 4 356 345 333 308 263 243 239 235 225 214 210 211 212 212 209 201 191 183 175 168 164 161 160 162 166 169 168 166 165 166 168 172 175 178 180 181 182 183 185 186 189 193 195 197 200 204 208 213 217 222 227 232 236 241 245 249 253 258 262 267 271 275 279 283 287 289 291 293 295 296 299 301 302 304 305
39 39 38 36 33 29 27 24 21 19 15 8 1 354 205 183 178 178 180 179 177 176 176 178 181 179 176 172 168 165 162 159 157 159 161 160 158 155 156 158 162 166 170 172 174 176 179 181 183 186 189 192 195 198 202 207 211 217 222 227 232 237 241 246 250 254 259 264 268 272 276 280 283 287 290 292 293 295 296 298 301 302 304 305 307
Height
3018 3017 3016 3016 3015 3015 3015 3014 3014 3013 3012 3011 3010 3009 3008 3007 3007 3006 3006 3006 3006 3007 3008 3010 3011 3013 3015 3016 3018 3020 3021 3023 3025 3026 3028 3029 3030 3031 3032 3033 3034 3035 3036 3037 3038 3040 3041 3041 3042 3043 3044 3044 3045 3045 3046 3046 3046 3046 3047 3048 3048 3049 3050 3050 3050 3048 3047 3047 3047 3048 3048 3048 3047 3047 3047 3046 3045 3044 3044 3044 3044 3044 3044 3044 3044
3012 3011 3011 3011 3010 3010 3010 3010 3010 3009 3009 3008 3006 3005 3004 3003 3002 3002 3002 3003 3003 3003 3004 3005 3007 3008 3010 3012 3013 3014 3016 3017 3018 3020 3021 3023 3024 3025 3026 3027 3028 3029 3030 3031 3033 3035 3035 3036 3037 3038 3039 3039 3040 3041 3041 3041 3042 3042 3042 3043 3043 3044 3045 3046 3046 3045 3043 3042 3042 3043 3043 3043 3042 3042 3042 3042 3041 3040 3040 3039 3039 3039 3040 3040 3040
3006 3005 3005 3005 3004 3004 3005 3005 3006 3005 3005 3004 3003 3002 3001 2999 2998 2997 2997 2997 2997 2998 2999 3000 3001 3003 3004 3006 3007 3009 3010 3011 3012 3013 3015 3016 3017 3019 3020 3021 3022 3023 3024 3026 3028 3029 3029 3030 3032 3033 3033 3033 3034 3035 3036 3036 3037 3037 3038 3038 3038 3039 3039 3040 3041 3040 3039 3038 3038 3038 3038 3038 3038 3037 3037 3037 3037 3037 3037 3036 3036 3035 3035 3035 3035
3000 2998 2998 2998 2998 2998 2998 2998 2999 3000 3000 3000 2999 2998 2997 2996 2995 2993 2992 2992 2992 2993 2994 2994 2995 2996 2998 2999 3000 3002 3004 3005 3006 3007 3009 3010 3011 3012 3014 3015 3016 3017 3018 3020 3021 3022 3023 3024 3026 3027 3027 3028 3028 3029 3030 3031 3031 3032 3032 3033 3033 3033 3034 3035 3035 3035 3035 3034 3034 3034 3034 3033 3033 3033 3033 3033 3033 3033 3033 3033 3032 3032 3031 3030 3030
2994 2992 2991 2991 2991 2991 2991 2991 2992 2993 2993 2994 2994 2993 2992 2991 2990 2990 2989 2988 2988 2989 2989 2989 2990 2990 2992 2993 2994 2996 2997 2999 3000 3001 3002 3003 3004 3005 3007 3008 3010 3011 3012 3013 3015 3016 3017 3018 3019 3020 3021 3021 3022 3023 3024 3025 3026 3026 3027 3027 3028 3028 3028 3029 3029 3030 3030 3030 3030 3029 3029 3029 3028 3028 3028 3028 3028 3028 3028 3028 3028 3028 3027 3027 3026
2987 2986 2985 2984 2984 2984 2984 2984 2984 2985 2986 2986 2986 2986 2986 2985 2985 2985 2984 2984 2984 2984 2984 2984 2984 2985 2986 2986 2988 2989 2990 2991 2993 2994 2996 2996 2997 2998 2999 3001 3003 3004 3006 3007 3008 3009 3010 3012 3013 3013 3014 3014 3015 3017 3018 3019 3019 3020 3020 3021 3022 3022 3023 3024 3024 3024 3024 3025 3025 3025 3024 3024 3023 3023 3023 3023 3022 3022 3022 3023 3023 3023 3023 3023 3022
2981 2980 2979 2978 2978 2978 2977 2977 2977 2977 2978 2978 2978 2978 2978 2978 2978 2977 2978 2978 2979 2978 2978 2978 2978 2979 2979 2980 2981 2982 2982 2983 2985 2987 2988 2989 2990 2991 2992 2994 2995 2997 2999 3000 3001 3003 3004 3005 3005 3006 3007 3008 3009 3011 3012 3012 3012 3013 3013 3014 3015 3016 3017 3018 3018 3018 3018 3019 3019 3019 3018 3018 3018 3017 3017 3017 3017 3016 3016 3016 3017 3017 3016 3016 3016
2975 2974 2974 2973 2972 2971 2971 2971 2971 2970 2970 2971 2971 2971 2970 2970 2970 2969 2970 2970 2971 2971 2972 2972 2972 2973 2973 2973 2973 2974 2974 2976 2977 2979 2980 2981 2982 2983 2985 2986 2988 2990 2991 2993 2994 2996 2997 2997 2998 2999 3001 3002 3003 3004 3005 3005 3005 3005 3006 3007 3008 3009 3010 3011 3012 3011 3011 3012 3012 3012 3011 3011 3011 3011 3010 3010 3010 3010 3010 3010 3010 3010 3009 3009 3008
2971 2969 2968 2967 2966 2966 2965 2965 2964 2964 2963 2963 2963 2963 2963 2962 2962 2962 2962 2961 2962 2962 2963 2964 2964 2965 2966 2965 2966 2966 2966 2968 2969 2970 2972 2973 2975 2976 2977 2978 2980 2981 2983 2985 2986 2988 2989 2990 2991 2993 2994 2995 2996 2997 2997 2997 2997 2997 2999 3000 3000 3001 3003 3003 3004 3004 3004 3005 3005 3005 3005 3004 3004 3003 3003 3003 3003 3003 3002 3002 3002 3001 3001 3000 2999
2967 2965 2963 2962 2960 2959 2958 2958 2957 2956 2955 2955 2954 2954 2954 2953 2953 2953 2953 2953 2953 2954 2954 2955 2955 2956 2956 2956 2957 2957 2958 2959 2960 2961 2962 2964 2966 2967 2968 2970 2971 2973 2974 2976 2977 2979 2980 2982 2983 2985 2987 2988 2988 2989 2989 2989 2990 2990 2991 2992 2992 2994 2995 2996 2996 2996 2997 2997 2998 2998 2997 2997 2997 2996 2996 2996 2995 2995 2995 2995 2994 2993 2993 2992 2992
2962 2960 2958 2956 2954 2953 2951 2950 2949 2948 2947 2946 2945 2945 2945 2944 2944 2944 2944 2944 2944 2944 2945 2946 2946 2947 2947 2947 2947 2948 2949 2951 2951 2951 2952 2954 2955 2957 2958 2960 2962 2963 2965 2966 2968 2970 2972 2973 2975 2976 2978 2979 2980 2981 2981 2981 2982 2983 2983 2984 2985 2986 2987 2988 2988 2989 2989 2990 2990 2990 2990 2991 2990 2990 2990 2989 2989 2988 2989 2988 2988 2987 2986 2985 2985
2956 2954 2952 2950 2948 2946 2945 2943 2942 2941 2940 2938 2937 2936 2935 2935 2934 2934 2934 2934 2934 2935 2935 2936 2936 2937 2937 2938 2938 2939 2940 2941 2942 2942 2943 2944 2945 2946 2948 2950 2952 2954 2955 2957 2959 2961 2963 2964 2965 2967 2969 2971 2972 2972 2973 2973 2974 2975 2976 2976 2977 2978 2979 2980 2981 2982 2983 2983 2983 2983 2984 2984 2983 2983 2983 2983 2983 2982 2982 2982 2982 2981 2980 2980 2980
2949 2948 2947 2945 2942 2940 2938 2936 2935 2934 2932 2931 2930 2928 2927 2926 2925 2924 2924 2925 2925 2925 2925 2925 2926 2927 2927 2928 2929 2929 2931 2932 2933 2934 2935 2935 2935 2936 2937 2939 2942 2944 2946 2948 2950 2952 2953 2955 2957 2959 2961 2962 2963 2964 2964 2965 2966 2967 2968 2968 2969 2970 2971 2972 2973 2974 2975 2976 2976 2977 2977 2977 2976 2977 2977 2977 2977 2976 2976 2976 2975 2975 2974 2974 2974
2940 2939 2939 2938 2936 2934 2931 2929 2928 2926 2925 2924 2923 2922 2920 2919 2918 2917 2916 2916 2916 2916 2915 2915 2915 2916 2917 2918 2919 2919 2921 2923 2923 2924 2925 2926 2926 2926 2927 2929 2932 2935 2938 2940 2941 2942 2944 2946 2948 2950 2952 2953 2954 2955 2956 2957 2958 2959 2960 2960 2961 2962 2963 2964 2965 2967 2968 2969 2970 2970 2970 2970 2970 2971 2971 2971 2971 2971 2971 2970 2969 2969 2969 2968 2968
2929 2928 2928 2927 2926 2925 2924 2923 2921 2920 2918 2917 2916 2915 2914 2913 2912 2910 2909 2908 2907 2906 2906 2905 2905 2906 2907 2908 2908 2909 2911 2912 2912 2913 2915 2916 2916 2916 2917 2919 2922 2926 2929 2930 2932 2933 2934 2936 2938 2941 2943 2944 2946 2947 2947 2949 2950 2951 2951 2952 2953 2954 2954 2955 2957 2959 2961 2962 2963 2963 2963 2963 2964 2964 2964 2965 2965 2965 2965 2964 2963 2963 2962 2962 2962
2919 2917 2917 2916 2916 2915 2914 2914 2914 2912 2911 2910 2909 2908 2906 2905 2905 2903 2902 2901 2899 2898 2897 2897 2896 2896 2897 2897 2898 2900 2901 2901 2901 2903 2904 2905 2905 2906 2907 2908 2911 2914 2917 2920 2922 2924 2925 2927 2929 2932 2933 2934 2936 2937 2938 2939 2940 2941 2942 2943 2944 2945 2946 2947 2949 2951 2953 2954 2955 2956 2957 2957 2957 2957 2958 2959 2959 2959 2959 2958 2957 2956 2956 2956 2956
2911 2909 2908 2907 2906 2906 2905 2904 2904 2904 2904 2903 2901 2900 2899 2898 2897 2896 2894 2893 2892 2890 2889 2889 2888 2888 2888 2888 2888 2890 2892 2892 2892 2893 2893 2894 2894 2894 2896 2898 2901 2904 2907 2910 2913 2914 2916 2918 2920 2922 2923 2924 2925 2926 2928 2929 2930 2931 2933 2934 2935 2936 2937 2939 2941 2943 2945 2947 2948 2949 2950 2950 2951 2951 2951 2952 2952 2953 2952 2951 2950 2950 2949 2949 2949
2904 2902 2901 2899 2898 2897 2896 2895 2895 2895 2894 2894 2892 2892 2891 2890 2890 2888 2887 2885 2884 2883 2881 2881 2880 2880 2880 2879 2879 2880 2882 2883 2882 2881 2881 2882 2883 2883 2885 2887 2890 2894 2897 2900 2902 2904 2906 2909 2911 2912 2914 2915 2916 2917 2918 2920 2921 2922 2924 2925 2926 2927 2928 2931 2933 2935 2938 2940 2941 2942 2943 2944 2944 2944 2944 2944 2945 2946 2945 2944 2944 2944 2943 2942 2941
2897 2895 2894 2892 2890 2889 2887 2886 2885 2884 2884 2883 2883 2882 2881 2881 2881 2880 2878 2877 2875 2874 2873 2872 2872 2872 2872 2872 2871 2872 2873 2873 2873 2871 2871 2871 2871 2873 2874 2876 2880 2883 2886 2889 2892 2894 2896 2899 2901 2903 2904 2905 2906 2907 2909 2910 2912 2913 2914 2916 2916 2918 2920 2923 2925 2928 2930 2932 2933 2935 2936 2937 2937 2936 2937 2937 2938 2938 2938 2938 2938 2937 2936 2935 2934
2889 2887 2885 2884 2883 2881 2880 2878 2876 2875 2874 2873 2873 2872 2872 2871 2870 2870 2869 2868 2867 2866 2865 2864 2863 2863 2863 2863 2864 2864 2864 2864 2864 2863 2862 2862 2861 2862 2863 2866 2870 2873 2876 2879 2882 2884 2887 2890 2891 2893 2895 2896 2897 2898 2900 2901 2903 2904 2905 2906 2907 2910 2913 2916 2918 2920 2923 2924 2926 2928 2929 2930 2929 2929 2930 2930 2931 2931 2931 2931 2931 2930 2929 2928 2927
2880 2878 2877 2876 2874 2873 2872 2870 2869 2867 2866 2864 2862 2862 2862 2861 2860 2859 2858 2858 2858 2858 2857 2856 2855 2855 2855 2855 2855 2855 2855 2855 2855 2855 2854 2854 2854 2854 2855 2858 2861 2863 2866 2869 2872 2875 2878 2880 2882 2884 2886 2887 2888 2889 2890 2892 2894 2895 2896 2897 2900 2903 2906 2908 2910 2912 2915 2916 2919 2921 2922 2922 2922 2922 2923 2923 2924 2924 2924 2924 2924 2923 2922 2921 2920
2871 2870 2869 2867 2866 2864 2863 2862 2860 2859 2858 2856 2853 2852 2852 2851 2850 2849 2848 2847 2848 2848 2849 2848 2847 2847 2848 2847 2847 2847 2846 2846 2847 2847 2847 2847 2847 2848 2850 2852 2853 2855 2857 2860 2863 2865 2868 2871 2874 2876 2877 2879 2880 2880 2882 2883 2884 2886 2888 2890 2893 2895 2897 2898 2900 2903 2906 2910 2913 2914 2914 2915 2915 2915 2916 2916 2917 2917 2917 2917 2917 2916 2915 2915 2914
2861 2860 2859 2858 2857 2856 2854 2853 2852 2850 2849 2847 2844 2843 2843 2842 2841 2840 2838 2837 2836 2837 2839 2840 2840 2840 2841 2841 2841 2841 2839 2838 2838 2839 2840 2839 2840 2841 2843 2845 2847 2849 2851 2853 2855 2858 2860 2863 2865 2867 2868 2869 2870 2871 2872 2873 2876 2879 2881 2883 2885 2886 2888 2889 2891 2894 2899 2904 2905 2905 2906 2908 2908 2909 2909 2909 2910 2911 2911 2911 2910 2910 2909 2908 2908
2851 2849 2849 2847 2846 2846 2844 2842 2842 2841 2840 2838 2835 2834 2834 2833 2831 2831 2830 2828 2826 2826 2828 2829 2830 2831 2833 2835 2836 2835 2834 2832 2832 2832 2832 2832 2832 2832 2834 2836 2839 2841 2843 2845 2847 2850 2852 2854 2855 2857 2858 2860 2861 2862 2863 2865 2868 2871 2874 2875 2877 2878 2879 2881 2884 2888 2892 2896 2897 2898 2900 2901 2901 2902 2903 2903 2903 2904 2904 2904 2904 2903 2903 2903 2902
2842 2840 2838 2836 2835 2834 2832 2832 2831 2830 2829 2828 2825 2824 2824 2823 2822 2821 2821 2819 2817 2816 2817 2818 2819 2821 2823 2825 2828 2828 2827 2826 2825 2825 2825 2825 2825 2825 2824 2826 2829 2832 2834 2836 2838 2841 2843 2844 2845 2847 2849 2850 2852 2853 2855 2856 2859 2863 2866 2867 2868 2869 2871 2875 2879 2882 2885 2888 2890 2892 2893 2894 2894 2895 2896 2896 2897 2898 2898 2897 2897 2897 2897 2897 2897
2832 2830 2829 2827 2824 2822 2820 2819 2819 2819 2819 2818 2815 2814 2814 2813 2812 2812 2812 2811 2809 2808 2808 2808 2809 2810 2812 2815 2818 2819 2820 2819 2819 2819 2819 2818 2818 2818 2816 2816 2819 2823 2825 2827 2828 2831 2833 2834 2835 2837 2839 2841 2843 2845 2847 2848 2851 2854 2857 2858 2859 2860 2864 2869 2873 2876 2879 2881 2883 2885 2886 2887 2888 2888 2889 2890 2890 2891 2891 2891 2890 2890 2891 2892 2893
2820 2818 2818 2816 2814 2811 2808 2806 2805 2805 2806 2806 2805 2804 2803 2802 2801 2801 2802 2802 2801 2800 2799 2799 2799 2801 2803 2805 2807 2809 2811 2813 2813 2813 2813 2812 2812 2811 2810 2809 2810 2814 2816 2818 2819 2822 2824 2825 2827 2829 2831 2833 2835 2838 2840 2842 2843 2844 2846 2847 2850 2853 2859 2864 2868 2870 2872 2874 2875 2877 2879 2880 2881 2882 2883 2883 2884 2884 2885 2884 2884 2885 2885 2887 2888
2807 2805 2805 2803 2801 2799 2796 2793 2791 2790 2790 2791 2792 2791 2791 2791 2789 2788 2790 2792 2791 2791 2791 2790 2791 2792 2793 2795 2797 2799 2801 2805 2807 2807 2806 2806 2805 2805 2804 2803 2802 2805 2808 2810 2812 2814 2816 2817 2820 2822 2823 2824 2826 2828 2831 2833 2834 2834 2836 2838 2843 2849 2854 2858 2860 2861 2864 2867 2869 2871 2873 2874 2875 2876 2876 2877 2877 2878 2878 2878 2879 2879 2880 2881 2882
2794 2791 2790 2788 2786 2785 2782 2780 2778 2776 2774 2775 2777 2777 2778 2778 2776 2776 2779 2781 2781 2781 2781 2781 2782 2784 2784 2785 2787 2788 2791 2796 2799 2799 2798 2798 2798 2798 2798 2798 2797 2798 2801 2803 2805 2807 2808 2810 2812 2814 2816 2816 2817 2819 2822 2824 2826 2827 2828 2832 2838 2844 2848 2850 2852 2855 2858 2861 2863 2865 2867 2868 2869 2870 2871 2871 2871 2871 2872 2872 2872 2873 2874 2875 2875
2778 2776 2775 2773 2771 2769 2767 2765 2764 2762 2760 2760 2760 2761 2764 2766 2765 2764 2766 2769 2771 2771 2771 2772 2774 2775 2774 2775 2777 2779 2781 2786 2789 2789 2790 2791 2791 2791 2791 2792 2792 2793 2794 2796 2797 2799 2801 2802 2805 2807 2808 2809 2810 2813 2815 2817 2819 2821 2823 2827 2833 2838 2841 2843 2846 2849 2852 2855 2857 2860 2861 2862 2863 2864 2864 2864 2864 2865 2865 2866 2866 2867 2868 2868 2869
2761 2760 2759 2757 2755 2753 2751 2749 2748 2748 2747 2746 2745 2744 2747 2751 2753 2753 2754 2756 2759 2760 2761 2763 2765 2766 2765 2766 2768 2770 2772 2775 2778 2780 2782 2783 2783 2783 2784 2785 2786 2788 2789 2790 2791 2792 2794 2796 2798 2799 2801 2802 2804 2807 2809 2812 2814 2817 2819 2823 2827 2831 2833 2836 2839 2843 2846 2849 2852 2854 2855 2856 2857 2857 2858 2858 2858 2859 2859 2860 2860 2861 2861 2862 2862
2744 2743 2741 2739 2737 2736 2734 2733 2732 2732 2732 2732 2732 2730 2730 2732 2736 2741 2743 2744 2746 2748 2751 2753 2755 2756 2757 2758 2759 2761 2763 2766 2768 2771 2774 2776 2776 2776 2777 2777 2779 2781 2783 2784 2785 2787 2788 2790 2792 2793 2795 2796 2798 2800 2803 2806 2810 2813 2815 2818 2820 2823 2827 2830 2834 2837 2841 2843 2846 2847 2849 2850 2850 2851 2852 2852 2853 2853 2853 2854 2854 2855 2855 2856 2855
2727 2725 2724 2722 2720 2719 2717 2717 2717 2717 2717 2717 2717 2717 2717 2716 2719 2724 2729 2732 2734 2736 2739 2742 2744 2746 2748 2749 2750 2752 2755 2758 2759 2762 2765 2768 2769 2769 2770 2770 2771 2774 2776 2778 2780 2782 2783 2785 2786 2788 2790 2792 2794 2796 2798 2801 2805 2808 2811 2813 2816 2819 2822 2825 2828 2831 2834 2837 2839 2841 2842 2843 2844 2845 2846 2846 2847 2848 2848 2848 2849 2849 2850 2850 2849
2711 2709 2708 2707 2705 2704 2703 2702 2702 2702 2703 2702 2702 2702 2703 2704 2705 2708 2713 2718 2722 2724 2727 2731 2734 2736 2739 2741 2742 2744 2746 2749 2752 2754 2757 2760 2762 2763 2763 2764 2764 2766 2768 2771 2774 2776 2779 2780 2781 2783 2785 2787 2790 2792 2794 2796 2799 2802 2805 2808 2811 2814 2816 2818 2821 2825 2828 2830 2833 2835 2836 2837 2838 2839 2840 2841 2841 2842 2842 2843 2843 2844 2844 2844 2843
2697 2696 2695 2694 2692 2691 2690 2690 2689 2689 2689 2690 2690 2690 2691 2692 2693 2695 2699 2704 2709 2713 2717 2720 2723 2726 2729 2731 2734 2736 2738 2741 2744 2746 2749 2752 2755 2756 2756 2757 2757 2758 2761 2764 2766 2769 2772 2775 2777 2779 2780 2782 2784 2786 2788 2791 2793 2796 2799 2803 2805 2808 2810 2813 2816 2819 2822 2824 2826 2828 2830 2831 2832 2833 2834 2835 2836 2836 2837 2837 2837 2838 2838 2837 2837
2686 2685 2684 2683 2682 2680 2679 2678 2678 2678 2678 2679 2679 2680 2680 2681 2683 2685 2689 2693 2698 2703 2707 2710 2713 2716 2719 2722 2726 2729 2731 2733 2736 2739 2742 2744 2747 2748 2748 2750 2752 2753 2755 2758 2761 2763 2766 2769 2772 2774 2776 2778 2780 2782 2784 2786 2788 2791 2794 2797 2800 2803 2806 2809 2812 2814 2816 2818 2820 2822 2823 2825 2826 2827 2828 2829 2830 2830 2831 2831 2831 2831 2831 2831 2831
2678 2677 2675 2675 2673 2672 2671 2670 2669 2668 2669 2669 2670 2671 2672 2673 2674 2677 2680 2683 2688 2693 2697 2701 2704 2707 2711 2715 2718 2721 2723 2726 2729 2732 2735 2737 2738 2740 2742 2744 2746 2747 2749 2752 2754 2757 2760 2763 2767 2769 2771 2773 2775 2778 2780 2782 2784 2786 2789 2793 2796 2800 2803 2805 2807 2809 2811 2813 2815 2816 2818 2819 2820 2821 2822 2823 2824 2824 2825 2825 2825 2825 2825 2824 2824
2673 2670 2669 2667 2666 2665 2663 2662 2662 2661 2661 2662 2663 2664 2665 2666 2668 2670 2673 2676 2680 2684 2689 2693 2696 2700 2704 2708 2711 2713 2716 2718 2720 2723 2727 2729 2731 2733 2736 2738 2740 2742 2744 2746 2749 2753 2755 2758 2760 2763 2766 2768 2770 2772 2774 2776 2779 2781 2785 2788 2792 2795 2798 2800 2803 2805 2807 2808 2810 2812 2813 2814 2815 2816 2817 2818 2818 2818 2819 2819 2818 2818 2818 2817 2816
2668 2666 2664 2662 2660 2658 2657 2656 2656 2656 2656 2657 2658 2658 2659 2660 2662 2664 2667 2670 2674 2678 2682 2686 2690 2693 2698 2701 2704 2706 2709 2710 2713 2716 2721 2724 2726 2728 2731 2733 2735 2737 2739 2742 2745 2748 2751 2753 2755 2757 2760 2762 2764 2767 2769 2771 2774 2777 2781 2784 2788 2791 2794 2797 2799 2801 2803 2804 2805 2807 2808 2809 2811 2812 2812 2813 2813 2813 2813 2813 2812 2812 2811 2810 2809
2664 2662 2661 2659 2657 2655 2654 2653 2652 2652 2652 2653 2653 2654 2655 2656 2658 2660 2662 2665 2669 2673 2676 2680 2684 2688 2691 2694 2697 2700 2702 2704 2707 2711 2714 2718 2721 2723 2725 2727 2729 2732 2735 2738 2741 2744 2746 2748 2749 2751 2753 2755 2758 2761 2764 2767 2770 2774 2777 2781 2784 2788 2790 2793 2794 2796 2798 2800 2801 2802 2803 2804 2806 2807 2808 2808 2809 2809 2808 2808 2807 2806 2805 2803 2802
2662 2660 2658 2657 2655 2653 2652 2652 2651 2650 2650 2650 2651 2652 2653 2654 2655 2657 2659 2661 2665 2668 2672 2676 2679 2682 2685 2688 2691 2694 2696 2699 2702 2705 2708 2711 2714 2717 2719 2721 2724 2727 2731 2734 2737 2739 2740 2742 2743 2745 2747 2749 2752 2756 2760 2763 2767 2771 2774 2777 2780 2783 2785 2788 2790 2791 2793 2795 2796 2797 2798 2800 2801 2802 2803 2804 2804 2804 2804 2803 2802 2801 2799 2797 2795
2660 2658 2657 2656 2654 2653 2652 2651 2650 2649 2649 2649 2649 2650 2651 2652 2653 2654 2656 2659 2662 2665 2668 2671 2675 2678 2681 2683 2686 2688 2691 2693 2696 2699 2702 2705 2708 2710 2713 2716 2720 2723 2726 2729 2732 2734 2735 2735 2737 2740 2742 2745 2748 2752 2756 2760 2764 2768 2771 2774 2777 2779 2781 2783 2785 2787 2788 2790 2791 2792 2794 2795 2796 2797 2798 2799 2799 2799 2799 2798 2797 2796 2794 2792 2789
2659 2657 2656 2655 2654 2653 2652 2651 2650 2650 2649 2649 2649 2649 2650 2651 2652 2653 2655 2657 2660 2663 2665 2668 2671 2674 2676 2679 2681 2683 2686 2688 2691 2693 2697 2700 2703 2706 2709 2712 2715 2718 2722 2724 2727 2728 2729 2730 2733 2736 2739 2742 2745 2749 2753 2757 2761 2764 2767 2770 2773 2775 2777 2779 2780 2782 2783 2785 2786 2788 2789 2790 2791 2792 2793 2794 2794 2794 2794 2793 2792 2791 2789 2786 2784
2658 2657 2656 2655 2654 2653 2652 2651 2651 2650 2649 2649 2649 2649 2650 2651 2652 2653 2654 2656 2659 2661 2664 2666 2668 2670 2673 2675 2677 2679 2681 2683 2686 2689 2692 2695 2698 2702 2705 2708 2711 2714 2717 2720 2721 2722 2723 2725 2728 2732 2735 2738 2742 2745 2749 2753 2757 2760 2763 2767 2769 2771 2773 2775 2776 2777 2779 2780 2782 2783 2785 2786 2787 2788 2788 2789 2789 2789 2789 2788 2787 2785 2783 2781 2778
2658 2656 2655 2654 2653 2653 2652 2651 2651 2650 2649 2649 2649 2650 2650 2651 2651 2653 2654 2656 2658 2660 2662 2664 2666 2668 2669 2671 2673 2675 2677 2680 2683 2686 2689 2692 2695 2698 2701 2704 2707 2710 2713 2715 2716 2717 2719 2721 2725 2728 2732 2736 2739 2743 2746 2749 2753 2757 2760 2763 2765 2767 2769 2771 2772 2773 2775 2776 2778 2779 2780 2781 2782 2783 2783 2784 2784 2784 2784 2783 2781 2779 2777 2774 2772
2659 2657 2655 2654 2653 2653 2652 2651 2650 2650 2649 2650 2650 2650 2650 2651 2651 2652 2654 2655 2657 2658 2660 2662 2664 2666 2668 2669 2671 2673 2676 2679 2681 2684 2686 2689 2692 2695 2698 2701 2703 2706 2709 2711 2712 2714 2716 2719 2722 2726 2730 2734 2737 2741 2744 2747 2750 2753 2756 2759 2761 2763 2765 2767 2769 2770 2772 2773 2774 2775 2776 2777 2778 2778 2779 2779 2779 2778 2778 2776 2775 2773 2771 2768 2765
2660 2658 2656 2655 2654 2653 2652 2651 2651 2650 2650 2650 2650 2650 2650 2651 2652 2652 2653 2654 2656 2658 2659 2661 2663 2665 2666 2668 2670 2672 2675 2677 2679 2681 2683 2686 2689 2692 2694 2697 2700 2703 2705 2708 2709 2711 2714 2717 2720 2724 2728 2732 2735 2739 2742 2745 2748 2750 2753 2756 2758 2760 2762 2764 2766 2767 2768 2769 2770 2771 2772 2773 2773 2774 2774 2774 2773 2773 2772 2770 2768 2767 2765 2762 2759
2662 2659 2657 2656 2654 2653 2653 2652 2651 2651 2650 2650 2650 2651 2651 2652 2652 2653 2654 2655 2656 2657 2658 2660 2662 2663 2665 2667 2668 2670 2673 2674 2676 2678 2681 2683 2686 2689 2692 2695 2698 2700 2703 2705 2707 2710 2713 2716 2719 2723 2726 2730 2733 2737 2740 2743 2745 2748 2750 2753 2755 2757 2759 2761 2762 2763 2764 2765 2766 2767 2768 2769 2769 2769 2769 2768 2768 2767 2766 2764 2762 2761 2758 2755 2752
2664 2662 2659 2658 2656 2655 2654 2653 2652 2652 2651 2651 2651 2652 2652 2652 2653 2654 2654 2655 2656 2657 2658 2660 2661 2662 2663 2665 2667 2669 2671 2673 2675 2677 2679 2682 2684 2687 2690 2693 2696 2699 2702 2704 2707 2710 2713 2716 2719 2722 2726 2729 2732 2735 2738 2741 2743 2746 2748 2751 2753 2755 2756 2757 2758 2760 2760 2761 2763 2764 2764 2764 2764 2764 2763 2763 2762 2761 2760 2758 2756 2754 2751 2748 2745
2668 2665 2662 2660 2658 2657 2655 2654 2653 2653 2652 2652 2652 2652 2653 2653 2653 2654 2654 2655 2656 2657 2658 2659 2661 2662 2663 2665 2666 2668 2670 2672 2674 2677 2679 2682 2684 2687 2690 2693 2696 2699 2702 2705 2707 2710 2713 2716 2719 2722 2725 2728 2731 2734 2736 2739 2742 2744 2746 2749 2750 2752 2753 2754 2755 2756 2757 2757 2758 2759 2759 2759 2759 2759 2758 2758 2757 2755 2753 2751 2749 2747 2744 2741 2738
2673 2670 2666 2663 2661 2659 2658 2657 2656 2655 2654 2653 2653 2653 2653 2653 2653 2654 2654 2655 2656 2657 2658 2659 2661 2662 2664 2665 2667 2668 2670 2672 2675 2677 2680 2683 2685 2688 2691 2694 2697 2700 2702 2705 2707 2710 2713 2716 2719 2722 2724 2727 2730 2733 2735 2738 2740 2742 2744 2746 2748 2749 2750 2750 2751 2752 2753 2753 2754 2754 2754 2754 2754 2754 2753 2752 2751 2749 2747 2745 2742 2740 2737 2733 2730